| time (UTC) | temp C | wind direction | speed KPH | gust KPH | rain 1hr cm | rain 24hr cm | rain mn cm | humidity % | barometer mb |
| 20260505070050 | 5 | 238 | 22.5 | 32.2 | 0.00 | 0.33 | 0.00 | 88 | 1008.1 |
| 20260505064533 | 5 | 200 | 24.1 | 37.0 | 0.00 | 0.33 | 0.00 | 89 | 1007.7 |
| 20260505063034 | 5 | 234 | 20.9 | 33.8 | 0.00 | 0.33 | 0.00 | 88 | 1007.4 |
| 20260505061530 | 5 | 212 | 27.4 | 38.6 | 0.00 | 0.33 | 0.00 | 88 | 1007.2 |
| 20260505060029 | 5 | 192 | 22.5 | 40.2 | 0.00 | 0.33 | 0.00 | 88 | 1006.9 |
| 20260505054526 | 5 | 226 | 22.5 | 33.8 | 0.00 | 0.33 | 0.00 | 88 | 1006.7 |
| 20260505053022 | 5 | 209 | 24.1 | 35.4 | 0.00 | 0.33 | 0.00 | 88 | 1006.3 |
| 20260505051523 | 5 | 185 | 22.5 | 38.6 | 0.00 | 0.33 | 0.00 | 88 | 1006.1 |
| 20260505041521 | 6 | 215 | 25.7 | 40.2 | 0.00 | 0.33 | 0.00 | 85 | 1005.3 |
| 20260505040010 | 6 | 221 | 25.7 | 40.2 | 0.00 | 0.33 | 0.00 | 86 | 1005.2 |
| 20260505034509 | 6 | 217 | 22.5 | 35.4 | 0.00 | 0.33 | 0.00 | 84 | 1005.3 |
| 20260505033004 | 5 | 223 | 22.5 | 32.2 | 0.00 | 0.33 | 0.00 | 86 | 1005.1 |
| 20260505031601 | 6 | 218 | 24.1 | 33.8 | 0.00 | 0.33 | 0.00 | 85 | 1004.7 |
| 20260505030059 | 6 | 217 | 22.5 | 38.6 | 0.00 | 0.33 | 0.00 | 84 | 1004.7 |
| 20260505024557 | 6 | 211 | 20.9 | 43.5 | 0.00 | 0.33 | 0.33 | 83 | 1004.5 |
| 20260505023055 | 6 | 211 | 20.9 | 40.2 | 0.00 | 0.33 | 0.33 | 83 | 1004.2 |
| 20260505021554 | 6 | 218 | 24.1 | 49.9 | 0.00 | 0.33 | 0.33 | 82 | 1003.9 |
| 20260505020052 | 6 | 211 | 27.4 | 45.1 | 0.00 | 0.33 | 0.33 | 82 | 1003.5 |
| 20260505014652 | 6 | 237 | 27.4 | 51.5 | 0.00 | 0.33 | 0.33 | 80 | 1003.6 |
| 20260505013052 | 6 | 189 | 25.7 | 40.2 | 0.00 | 0.33 | 0.33 | 79 | 1003.4 |
| 20260505011549 | 7 | 208 | 29.0 | 43.5 | 0.00 | 0.33 | 0.33 | 77 | 1003.2 |
| 20260505010048 | 7 | 217 | 24.1 | 43.5 | 0.00 | 0.33 | 0.33 | 75 | 1003.0 |
| 20260505004547 | 7 | 198 | 30.6 | 51.5 | 0.00 | 0.38 | 0.33 | 75 | 1002.9 |
| 20260505003044 | 6 | 207 | 25.7 | 46.7 | 0.00 | 0.38 | 0.33 | 77 | 1002.8 |
| 20260505001556 | 6 | 209 | 22.5 | 40.2 | 0.00 | 0.38 | 0.33 | 75 | 1002.8 |
| 20260505000053 | 6 | 209 | 25.7 | 35.4 | 0.00 | 0.38 | 0.33 | 75 | 1002.5 |
| 20260504234558 | 6 | 199 | 19.3 | 33.8 | 0.00 | 0.43 | 0.33 | 76 | 1002.3 |
| 20260504233040 | 6 | 215 | 16.1 | 25.7 | 0.00 | 0.43 | 0.33 | 73 | 1002.2 |
| 20260504231538 | 7 | 224 | 19.3 | 35.4 | 0.00 | 0.43 | 0.33 | 71 | 1002.1 |
| 20260504230036 | 7 | 222 | 16.1 | 29.0 | 0.00 | 0.58 | 0.33 | 71 | 1002.0 |
| 20260504224541 | 7 | 172 | 17.7 | 29.0 | 0.00 | 0.58 | 0.33 | 71 | 1002.0 |
| 20260504223041 | 7 | 208 | 19.3 | 37.0 | 0.00 | 0.58 | 0.33 | 71 | 1001.9 |
| 20260504221536 | 7 | 227 | 20.9 | 33.8 | 0.00 | 0.58 | 0.33 | 71 | 1001.8 |
| 20260504220032 | 7 | 224 | 19.3 | 32.2 | 0.00 | 0.71 | 0.33 | 74 | 1001.7 |
| 20260504214530 | 7 | 224 | 25.7 | 37.0 | 0.00 | 0.71 | 0.33 | 72 | 1001.5 |
| 20260504213047 | 7 | 193 | 17.7 | 30.6 | 0.00 | 0.71 | 0.33 | 74 | 1001.3 |
| 20260504211526 | 8 | 214 | 19.3 | 27.4 | 0.00 | 0.71 | 0.33 | 73 | 1001.1 |
| 20260504210027 | 7 | 217 | 22.5 | 33.8 | 0.00 | 0.81 | 0.33 | 76 | 1000.9 |
| 20260504204523 | 7 | 193 | 24.1 | 33.8 | 0.00 | 0.81 | 0.33 | 77 | 1000.6 |
| 20260504203021 | 7 | 170 | 19.3 | 38.6 | 0.00 | 0.81 | 0.33 | 78 | 1000.4 |
| 20260504201525 | 7 | 224 | 22.5 | 37.0 | 0.00 | 0.81 | 0.33 | 79 | 1000.4 |
| 20260504200019 | 7 | 215 | 19.3 | 30.6 | 0.00 | 0.89 | 0.33 | 78 | 1000.1 |
| 20260504194519 | 8 | 221 | 24.1 | 41.8 | 0.00 | 0.89 | 0.33 | 76 | 999.8 |
| 20260504193014 | 7 | 230 | 17.7 | 30.6 | 0.00 | 0.89 | 0.33 | 80 | 999.6 |
| 20260504191513 | 7 | 240 | 22.5 | 37.0 | 0.00 | 0.89 | 0.33 | 81 | 999.6 |
| 20260504190012 | 7 | 249 | 22.5 | 40.2 | 0.00 | 0.89 | 0.33 | 80 | 999.3 |
| 20260504184513 | 7 | 237 | 25.7 | 43.5 | 0.00 | 0.89 | 0.33 | 80 | 999.2 |
| 20260504183006 | 6 | 257 | 24.1 | 35.4 | 0.00 | 0.89 | 0.33 | 83 | 999.2 |
| 20260504181502 | 6 | 219 | 22.5 | 33.8 | 0.00 | 0.89 | 0.33 | 85 | 999.1 |
| 20260504180001 | 6 | 233 | 24.1 | 40.2 | 0.00 | 0.89 | 0.33 | 86 | 999.0 |
| 20260504174616 | 5 | 240 | 25.7 | 43.5 | 0.00 | 0.89 | 0.33 | 86 | 998.7 |
| 20260504173058 | 5 | 238 | 27.4 | 48.3 | 0.00 | 0.89 | 0.33 | 87 | 998.5 |
| 20260504171554 | 5 | 244 | 30.6 | 43.5 | 0.00 | 0.89 | 0.33 | 88 | 998.3 |
| 20260504090119 | 2 | 303 | 25.7 | 37.0 | 0.05 | 0.69 | 0.15 | 95 | 978.9 |
| 20260504081547 | 2 | 261 | 17.7 | 25.7 | 0.08 | 0.64 | 0.10 | 95 | 977.1 |